Temp
9 9 9 9 9 9 9 9 8 8 8 8 8 8 8 8 8 7 7 7 6 6 6 6 6 6 6 5 5 6 6 5 5 5 5 5 6 6 6 5 5 6
9 9 9 9 9 9 9 8 8 8 8 8 8 8 8 7 7 7 7 6 6 6 5 5 5 5 5 5 5 5 5 5 5 5 5 5 5 5 5 5 5 5
9 9 9 9 9 9 8 8 8 8 8 8 8 7 7 7 7 6 6 6 6 5 5 5 5 5 5 5 5 5 5 5 5 5 5 5 5 5 5 5 5 5
9 9 9 9 8 8 8 8 8 8 8 8 7 7 7 7 6 6 6 6 6 5 5 5 5 5 5 5 5 5 5 5 5 5 5 5 5 5 5 5 5 5
9 9 9 8 8 8 8 8 8 7 8 7 7 7 7 6 6 6 6 5 5 5 5 5 5 5 5 5 5 5 5 5 5 5 4 4 4 4 4 4 4 4
9 9 8 8 8 8 7 7 7 7 7 7 7 7 6 6 5 5 5 5 5 5 5 5 5 5 5 5 5 4 4 4 5 5 4 4 4 4 4 4 4 4
9 9 8 8 8 8 7 7 7 7 7 7 7 6 6 6 5 5 5 5 5 5 5 5 5 5 5 5 5 4 4 4 4 4 4 4 4 4 4 4 4 4
9 8 8 8 7 7 7 7 7 7 7 7 7 6 6 5 5 5 5 5 5 5 4 4 5 4 4 5 5 4 4 4 4 4 4 4 4 4 4 4 4 4
8 8 8 7 7 7 7 7 7 7 7 7 7 6 5 5 5 5 5 5 5 5 5 4 4 4 4 4 4 4 4 4 4 4 4 4 4 4 4 4 3 3
8 8 7 7 7 7 7 7 7 6 6 6 6 6 5 5 5 5 5 5 5 5 5 4 4 4 4 4 4 4 4 4 4 3 3 3 3 3 3 3 3 3
8 7 7 7 7 7 7 6 6 6 5 5 5 5 5 5 5 5 5 5 5 5 5 4 4 4 4 4 4 4 4 4 3 3 3 3 3 3 3 3 3 3
8 7 7 6 6 6 6 6 6 6 6 5 5 5 5 4 4 4 4 4 4 4 4 4 4 4 4 4 4 4 4 4 3 3 3 3 3 3 3 3 3 3
7 7 6 6 6 6 6 6 6 6 6 5 5 5 4 4 4 4 4 4 4 4 4 4 4 4 4 4 4 4 4 4 3 3 3 3 3 3 3 3 3 3
7 6 6 6 6 6 6 6 6 6 6 5 5 5 4 4 4 4 4 4 4 4 4 4 4 4 4 3 4 4 4 3 3 3 3 3 3 3 3 3 3 3
6 6 6 6 6 6 6 6 6 6 6 5 5 5 4 4 4 4 4 4 4 4 4 4 4 3 3 3 3 3 3 3 3 3 3 3 3 3 3 3 3 3
6 6 6 6 5 5 6 6 6 5 5 5 5 4 4 4 4 4 4 4 4 4 4 4 4 3 3 3 3 3 3 3 3 3 3 3 3 3 3 3 3 2
6 5 5 5 5 5 5 5 5 5 5 5 5 4 4 4 4 4 4 4 4 3 3 3 3 3 3 3 3 3 3 3 3 3 3 3 3 3 3 2 2 2
5 5 5 5 5 5 5 5 5 5 5 5 5 4 4 4 4 4 4 4 4 3 3 3 3 3 3 3 3 3 3 3 3 3 3 3 2 3 2 2 2 2
5 5 5 5 5 5 5 5 5 5 5 5 4 4 4 4 4 4 4 4 3 3 3 3 3 3 3 3 3 3 3 3 3 3 3 3 2 2 2 2 2 2
5 5 5 5 5 5 5 4 4 5 4 4 4 4 4 4 4 4 4 4 3 3 3 3 3 3 3 3 3 3 3 3 3 3 3 3 3 3 2 2 2 2
5 5 5 5 5 4 4 4 4 4 4 4 4 4 4 4 3 3 3 3 3 3 3 3 3 3 3 3 3 3 3 3 3 3 3 3 3 3 3 2 2 2
5 5 5 5 4 4 4 4 4 4 4 4 4 4 4 3 3 3 3 3 3 3 3 3 3 3 3 3 3 3 3 3 3 3 2 2 3 3 2 2 2 2
5 5 5 5 4 4 4 4 4 4 4 4 4 3 3 3 3 3 3 3 3 3 3 3 3 2 2 2 3 3 3 2 2 2 2 2 3 2 2 2 2 2
5 5 5 5 4 4 4 4 4 4 4 4 4 3 3 3 3 3 3 3 3 3 3 3 2 2 2 2 2 2 2 2 2 2 2 2 2 2 2 2 2 2
5 5 5 4 4 4 4 4 4 4 4 4 4 3 3 3 3 3 3 3 2 2 2 2 2 2 2 2 2 2 2 2 2 2 2 2 2 2 2 2 2 2
5 5 5 4 4 4 4 4 4 4 4 4 3 3 3 2 2 3 3 3 2 2 2 2 2 2 2 2 2 2 2 2 2 2 2 2 2 2 2 2 2 2
Height
3184 3183 3181 3180 3178 3177 3176 3175 3174 3173 3171 3169 3168 3166 3165 3163 3161 3160 3159 3157 3156 3155 3153 3152 3150 3149 3148 3146 3145 3145 3144 3142 3141 3140 3139 3139 3138 3137 3136 3135 3134 3133
3182 3181 3179 3178 3177 3175 3174 3173 3172 3170 3169 3167 3165 3164 3162 3161 3160 3158 3157 3155 3154 3153 3152 3150 3148 3147 3146 3145 3143 3142 3140 3139 3138 3137 3136 3136 3134 3133 3133 3132 3131 3130
3181 3179 3178 3176 3175 3173 3172 3171 3169 3168 3166 3165 3163 3162 3161 3159 3158 3156 3155 3153 3152 3151 3150 3148 3147 3145 3144 3143 3141 3140 3138 3137 3136 3135 3134 3133 3131 3130 3130 3129 3128 3127
3179 3177 3176 3174 3173 3171 3170 3169 3167 3166 3164 3163 3161 3160 3159 3157 3156 3155 3153 3152 3151 3149 3148 3147 3145 3144 3142 3141 3140 3138 3136 3135 3134 3132 3131 3130 3129 3127 3126 3125 3124 3123
3177 3175 3174 3172 3171 3169 3168 3166 3165 3163 3162 3161 3159 3158 3157 3155 3154 3153 3151 3150 3149 3148 3146 3145 3143 3142 3140 3139 3137 3136 3135 3133 3132 3130 3129 3128 3126 3125 3123 3122 3121 3120
3176 3174 3172 3170 3169 3167 3166 3165 3163 3162 3160 3159 3158 3156 3155 3154 3152 3151 3150 3149 3148 3146 3145 3143 3142 3140 3138 3137 3135 3134 3133 3132 3130 3129 3127 3126 3124 3122 3121 3119 3118 3117
3173 3172 3170 3168 3167 3165 3164 3163 3161 3160 3159 3157 3156 3154 3153 3152 3151 3149 3148 3147 3146 3144 3143 3142 3140 3139 3137 3135 3134 3132 3131 3129 3128 3127 3125 3124 3122 3120 3119 3117 3115 3114
3171 3169 3168 3166 3165 3164 3162 3161 3159 3158 3156 3155 3154 3152 3151 3150 3149 3147 3146 3145 3144 3142 3141 3140 3138 3137 3135 3134 3132 3130 3129 3127 3125 3124 3123 3121 3120 3118 3116 3114 3112 3111
3169 3167 3166 3164 3163 3161 3160 3158 3156 3155 3153 3152 3152 3150 3149 3148 3146 3145 3144 3142 3141 3140 3139 3138 3136 3135 3133 3131 3130 3128 3127 3125 3123 3121 3120 3118 3117 3115 3113 3112 3110 3108
3166 3165 3163 3162 3161 3159 3158 3156 3154 3153 3151 3150 3149 3148 3147 3145 3144 3143 3141 3140 3139 3137 3136 3135 3134 3132 3130 3129 3127 3126 3124 3123 3121 3119 3117 3116 3114 3112 3110 3108 3106 3105
3164 3163 3161 3160 3159 3157 3156 3154 3153 3151 3150 3148 3147 3146 3145 3143 3142 3141 3139 3138 3137 3135 3134 3132 3131 3129 3128 3126 3125 3123 3122 3121 3119 3116 3115 3113 3111 3109 3107 3105 3103 3101
3162 3161 3160 3158 3157 3156 3154 3153 3151 3150 3148 3146 3145 3144 3142 3141 3140 3138 3137 3136 3134 3133 3131 3130 3128 3125 3124 3123 3122 3120 3119 3118 3116 3114 3112 3110 3108 3106 3105 3103 3101 3098
3160 3159 3158 3157 3155 3153 3152 3151 3149 3148 3146 3145 3143 3142 3140 3139 3138 3136 3135 3133 3132 3130 3128 3127 3125 3122 3121 3120 3119 3117 3116 3114 3113 3111 3109 3108 3106 3104 3102 3100 3098 3096
3158 3157 3156 3155 3153 3151 3150 3149 3147 3146 3145 3143 3141 3139 3138 3137 3135 3134 3132 3131 3129 3128 3126 3124 3122 3120 3119 3117 3116 3114 3113 3111 3109 3108 3106 3105 3103 3101 3100 3098 3095 3093
3156 3155 3154 3153 3151 3149 3148 3147 3145 3144 3142 3141 3139 3137 3135 3134 3132 3131 3129 3128 3127 3125 3124 3122 3120 3117 3116 3115 3113 3111 3110 3108 3107 3105 3103 3102 3100 3098 3097 3095 3092 3090
3154 3153 3152 3151 3149 3147 3146 3145 3143 3142 3140 3138 3137 3135 3133 3132 3130 3128 3127 3125 3124 3123 3121 3119 3116 3114 3113 3112 3111 3109 3108 3106 3104 3102 3100 3098 3097 3095 3094 3092 3089 3087
3152 3151 3150 3149 3147 3145 3144 3142 3141 3140 3138 3136 3134 3133 3131 3129 3128 3126 3124 3123 3122 3120 3118 3117 3114 3112 3110 3109 3108 3107 3105 3103 3101 3099 3097 3095 3093 3092 3091 3089 3086 3084
3150 3149 3148 3146 3145 3143 3142 3140 3139 3137 3135 3134 3132 3131 3129 3127 3125 3124 3122 3121 3119 3117 3115 3114 3112 3110 3109 3107 3105 3104 3102 3100 3098 3096 3094 3092 3090 3089 3087 3085 3083 3081
3148 3147 3145 3144 3143 3141 3140 3138 3137 3135 3133 3131 3130 3129 3127 3125 3123 3121 3120 3118 3117 3115 3113 3112 3110 3108 3106 3105 3103 3101 3099 3097 3095 3093 3091 3089 3088 3087 3085 3082 3080 3077
3145 3144 3143 3142 3140 3139 3138 3136 3134 3133 3131 3129 3128 3126 3125 3123 3121 3119 3118 3116 3114 3113 3111 3109 3108 3106 3104 3103 3101 3099 3096 3094 3093 3091 3088 3087 3085 3084 3082 3079 3076 3074
3143 3142 3140 3139 3138 3137 3135 3134 3132 3130 3129 3127 3126 3124 3122 3120 3119 3117 3115 3114 3112 3110 3108 3107 3105 3104 3102 3100 3098 3096 3094 3092 3090 3088 3086 3084 3082 3080 3078 3076 3074 3071
3141 3139 3138 3137 3136 3134 3133 3131 3130 3128 3127 3125 3123 3121 3120 3118 3116 3115 3113 3112 3110 3108 3106 3104 3103 3101 3100 3098 3096 3094 3092 3090 3088 3086 3084 3081 3078 3077 3075 3073 3071 3069
3138 3137 3135 3134 3133 3131 3130 3129 3127 3126 3124 3122 3120 3119 3117 3116 3114 3113 3111 3109 3108 3106 3104 3102 3100 3099 3098 3096 3094 3092 3090 3088 3086 3084 3081 3078 3075 3074 3073 3071 3069 3066
3135 3134 3133 3131 3130 3129 3127 3126 3125 3123 3121 3119 3118 3116 3115 3113 3112 3110 3109 3107 3105 3103 3101 3100 3098 3097 3096 3094 3092 3090 3088 3086 3084 3082 3080 3077 3075 3073 3071 3069 3067 3064
3132 3131 3130 3128 3127 3126 3125 3123 3122 3120 3119 3117 3115 3113 3111 3110 3109 3108 3106 3104 3102 3101 3100 3098 3096 3096 3095 3093 3090 3088 3086 3084 3082 3079 3078 3076 3074 3072 3070 3068 3065 3063
3129 3127 3127 3126 3124 3123 3122 3120 3119 3117 3116 3114 3113 3111 3109 3107 3106 3105 3104 3102 3099 3098 3097 3096 3094 3092 3091 3089 3087 3085 3083 3082 3080 3077 3076 3074 3072 3070 3068 3066 3064 3061
Wind_Speed
21 21 21 20 19 18 18 17 18 19 21 22 22 22 22 21 20 20 19 18 18 18 18 19 20 20 20 20 21 21 22 23 23 23 22 22 25 26 25 26 27 29
21 21 21 20 19 19 18 18 19 21 22 23 22 22 21 19 18 19 19 18 17 17 18 19 19 20 20 20 21 22 23 23 22 23 23 22 23 24 25 26 26 28
21 21 21 21 20 20 19 20 21 21 22 22 22 21 20 18 18 18 18 18 17 17 18 18 19 20 20 20 21 22 23 23 22 22 22 23 23 24 24 25 26 27
21 22 22 22 21 21 21 20 21 21 22 22 21 21 20 18 18 18 18 18 18 17 18 18 19 20 20 20 20 21 22 22 22 22 22 23 24 23 23 24 24 26
22 23 23 23 22 22 21 20 20 21 21 22 22 21 20 18 18 17 17 17 17 17 18 19 20 20 21 21 20 20 20 21 22 23 23 24 23 21 21 22 22 23
24 24 24 24 23 22 21 20 20 20 21 22 22 22 21 19 18 18 18 17 17 17 17 18 20 21 22 22 21 21 21 21 21 22 23 22 21 20 21 22 22 22
25 25 25 24 23 22 20 20 20 20 21 21 21 22 21 19 19 19 19 19 19 19 18 18 19 21 22 22 22 22 22 22 22 21 21 21 21 21 21 22 23 24
27 26 25 24 22 21 21 21 21 22 22 22 21 21 21 20 19 19 19 20 21 21 20 19 19 20 22 22 22 22 23 23 23 23 21 21 21 22 22 23 24 25
28 26 24 23 22 21 21 21 23 23 23 23 22 21 21 20 19 19 20 20 21 22 22 21 21 21 21 23 24 23 23 23 24 24 23 23 23 23 24 25 26 28
28 25 23 22 21 21 22 22 23 22 21 23 23 21 20 20 20 20 20 21 21 22 22 22 22 21 22 24 24 24 23 23 24 23 24 25 25 25 26 27 29 31
27 24 22 21 20 21 22 22 22 21 21 22 21 20 20 20 21 21 21 21 21 22 23 23 22 22 23 24 24 24 23 23 23 24 25 26 26 27 27 28 30 33
25 22 21 20 20 21 22 22 22 22 22 21 20 20 20 20 21 22 21 21 22 23 24 25 24 23 24 26 25 25 24 23 23 24 25 26 26 27 27 28 31 33
23 21 19 20 21 22 22 22 22 21 21 21 21 21 21 21 22 22 22 22 22 23 23 24 25 25 26 27 27 27 27 25 24 24 25 25 26 27 27 29 30 32
21 20 20 20 21 22 22 22 21 21 20 21 22 23 22 21 22 22 21 21 22 22 22 23 24 26 27 27 28 28 27 26 25 26 26 25 26 27 27 28 29 30
20 20 20 20 20 21 22 22 21 20 21 22 23 23 22 22 22 21 20 21 21 20 20 22 24 26 26 25 26 27 26 27 28 28 27 25 25 26 26 26 28 30
19 19 19 19 20 21 22 21 20 20 20 22 22 22 22 21 20 20 20 20 20 19 19 21 24 25 24 24 25 26 26 28 28 28 27 25 25 25 25 25 27 29
19 19 19 19 20 21 21 21 20 19 20 22 22 21 21 20 19 19 19 19 19 19 20 21 23 24 25 25 26 26 26 27 27 26 25 24 24 25 25 25 26 28
20 20 19 20 21 21 22 21 20 19 20 21 22 21 20 19 19 19 19 19 19 20 21 21 22 23 24 25 26 25 25 25 25 25 24 23 24 25 25 25 25 27
20 20 20 21 22 23 23 21 20 20 20 21 21 20 19 19 20 20 20 19 19 20 21 21 21 22 23 23 24 24 24 24 23 23 24 23 23 24 24 25 26 28
21 21 22 22 23 24 24 23 22 21 21 22 21 20 20 20 21 21 20 20 20 20 21 20 20 21 22 22 23 23 24 24 23 23 23 24 24 24 24 25 26 28
22 23 24 24 25 26 26 25 23 22 22 22 22 21 21 22 21 21 20 20 20 20 20 19 19 20 21 22 23 24 24 24 24 23 23 24 24 24 24 25 26 27
25 25 25 26 26 26 27 27 25 23 22 23 23 23 22 22 22 21 20 20 19 20 20 19 18 19 21 22 23 24 24 24 24 23 23 23 22 22 24 25 24 25
27 27 27 27 27 27 27 28 26 24 22 23 24 23 22 22 21 20 20 20 19 20 21 20 18 17 18 20 22 23 23 24 25 24 23 22 21 21 24 24 23 24
29 29 29 29 28 27 27 28 27 25 24 23 24 24 24 23 22 20 20 20 20 21 21 22 21 18 17 18 20 22 23 24 24 24 23 22 20 21 23 23 23 23
32 31 30 30 30 28 28 28 28 27 25 24 25 26 25 24 23 22 21 21 23 23 22 22 23 21 17 17 20 22 22 23 24 24 23 21 20 21 22 22 22 22
34 34 32 31 30 28 28 29 29 28 27 26 26 26 26 26 25 24 23 23 25 25 23 22 24 22 18 17 20 22 22 22 23 24 23 22 21 21 21 21 21 22
Wind_Direction
323 324 325 325 323 322 321 320 318 316 315 314 313 315 316 316 316 315 314 311 309 308 306 305 304 304 304 303 302 302 300 300 301 300 296 291 288 286 284 283 283 283
323 323 324 323 321 320 319 318 317 316 315 315 315 317 319 319 318 316 313 311 309 307 306 306 306 306 306 305 305 305 304 305 306 306 306 301 294 290 288 286 283 280
322 321 321 320 319 318 317 317 316 315 315 316 317 319 320 318 316 313 311 310 310 308 308 308 308 307 306 305 304 303 302 303 305 306 307 305 302 298 294 291 287 284
321 320 318 317 317 317 316 316 315 314 315 317 318 318 318 316 314 311 310 309 309 309 310 310 309 308 308 307 305 301 298 299 301 302 302 303 306 307 303 298 294 290
319 318 316 315 315 315 315 314 313 313 315 317 318 318 317 315 313 310 307 305 305 306 308 307 307 308 309 310 309 305 301 299 300 300 300 302 308 311 310 307 303 298
318 316 313 312 312 313 312 311 311 313 314 316 316 317 317 315 313 310 306 302 300 300 301 302 303 306 307 309 310 307 304 301 300 300 299 300 305 310 312 310 310 307
317 314 311 310 310 310 309 308 309 311 313 315 315 315 315 314 313 311 307 303 299 295 295 296 298 301 303 305 306 305 305 305 304 302 300 298 300 305 308 308 310 310
316 311 308 308 308 309 308 309 311 313 314 316 315 313 313 313 311 309 306 303 300 296 295 295 296 299 301 302 302 302 305 306 305 305 303 301 300 303 305 307 309 310
314 309 306 307 308 308 309 312 315 317 317 318 318 314 312 311 310 308 305 302 301 299 297 296 297 299 300 301 300 300 302 303 304 305 305 303 302 303 304 306 308 309
311 306 305 306 308 309 311 315 318 318 315 316 316 313 311 310 309 308 305 303 302 301 299 297 297 298 299 300 300 299 300 301 302 303 304 305 305 304 303 304 307 310
308 304 304 305 308 311 313 316 318 316 313 311 311 311 312 311 308 306 304 302 301 300 298 295 294 295 297 297 297 296 297 300 302 302 303 306 307 306 305 305 307 311
305 303 304 306 308 311 313 316 317 317 315 313 313 314 313 311 309 306 303 300 299 298 298 296 296 297 297 297 297 296 298 302 303 301 302 305 306 305 305 306 309 312
304 303 304 307 309 312 314 317 318 317 315 314 314 314 312 311 309 306 302 299 297 297 298 298 298 299 299 300 300 300 302 304 303 302 302 303 304 303 304 306 309 314
304 304 306 307 309 312 315 317 317 315 313 312 313 314 313 311 308 304 302 299 297 297 297 297 298 298 300 302 303 303 304 305 304 303 302 302 301 301 303 306 310 315
305 305 307 308 310 314 317 317 316 314 313 312 313 315 314 310 307 305 303 301 299 298 297 297 296 297 300 302 302 303 304 303 303 303 303 301 299 300 302 304 308 315
307 308 309 310 313 316 317 317 315 313 312 312 314 315 312 310 309 307 305 304 303 300 297 296 295 297 301 302 301 302 303 303 304 305 305 302 299 299 301 303 306 313
309 311 312 314 315 317 317 317 314 311 311 313 315 315 311 309 308 308 307 306 304 301 297 297 298 300 303 302 301 303 304 304 307 309 307 302 298 298 299 301 305 311
311 314 315 316 318 319 319 317 315 312 311 313 314 313 312 310 309 309 308 306 303 300 299 299 299 300 301 301 302 303 304 305 309 312 309 303 298 298 299 301 304 311
313 315 316 318 320 321 321 318 317 315 313 312 313 312 312 311 309 308 307 305 303 300 299 299 299 300 300 301 302 304 304 306 310 312 310 304 298 297 298 300 304 311
313 315 316 318 319 320 322 321 318 316 314 312 312 312 313 312 311 309 308 306 303 300 299 300 300 300 301 301 303 304 305 307 310 310 308 304 301 301 302 304 305 310
310 313 314 316 317 318 321 321 318 315 314 314 313 313 314 313 311 309 307 304 302 300 300 300 300 300 300 301 302 304 306 309 310 310 307 305 305 307 308 306 306 309
306 307 309 312 315 317 319 320 317 312 312 314 315 314 313 312 310 308 305 302 301 300 298 297 298 299 300 301 301 304 309 311 311 309 305 303 306 309 308 306 306 308
301 302 304 308 313 317 317 317 315 311 310 315 317 315 311 309 308 307 304 301 299 296 294 296 299 299 300 303 305 308 311 312 312 311 308 309 313 312 309 308 309 307
295 298 300 304 310 314 314 314 313 311 310 314 315 313 310 306 305 307 305 301 297 294 294 299 302 299 297 303 308 309 312 312 311 312 313 316 317 313 310 311 310 308
291 293 296 300 305 310 312 311 311 310 311 312 313 313 310 307 306 309 307 302 297 295 296 298 298 296 296 303 307 308 310 311 311 312 314 316 315 314 313 314 313 310
288 289 293 296 299 304 307 307 307 309 310 310 311 311 308 305 305 307 306 302 300 300 301 298 294 294 299 302 303 304 307 310 310 311 313 314 314 315 317 317 316 314